Regional Weather Roundup
Issued by NWS

Home | Current Version | Previous Version | Text Only | Print | Product List | Glossary On
Versions: 1 2 3 4 5 6 7 8 9 10 11 12 13 14 15 16 17 18 19 20 21 22 23 24 25 26 27 28 29 30 31 32 33 34 35 36 37 38 39 40 41 42 43 44 45 46 47 48 49 50
000
ASUS43 KDTX 020010
RWRMI
MICHIGAN HOURLY REGIONAL WEATHER ROUNDUP
NATIONAL WEATHER SERVICE DETROIT/PONTIAC MI
800 PM EDT WED OCT 01 2014

NOTE: "FAIR" INDICATES FEW OR NO CLOUDS BELOW 12,000 FEET WITH NO
SIGNIFICANT WEATHER AND/OR OBSTRUCTION TO VISIBILITY.

MIZ047>049-052>055-059>063-066>070-074>076-081>083-020100-
SOUTHEAST LOWER MICHIGAN

CITY           SKY/WX    TMP DP  RH WIND       PRES   REMARKS
ADRIAN         CLEAR     59  51  75 SE6       30.01S
6HR MIN TEMP:  59; 6HR MAX TEMP:  67;

ALMA           CLEAR     51  49  90 CALM      30.01R
ANN ARBOR      CLEAR     59  50  72 E6        30.01S
BAD AXE        CLOUDY    59  58  98 CALM      30.04S FOG
6HR MIN TEMP:  59; 6HR MAX TEMP:  65;

CARO           CLEAR     58  56  91 SE3       30.02S
DETROIT CITY   PTCLDY    63  57  81 E6        30.02S
DETROIT        PTCLDY    62  53  72 CALM      30.03R
6HR MIN TEMP:  59; 6HR MAX TEMP:  67;

FLINT          CLEAR     62  52  69 SE5       30.01S
6HR MIN TEMP:  61; 6HR MAX TEMP:  70;

GROSSE ILE     CLEAR     61  55  82 CALM      30.01S
HILLSDALE      CLEAR     56  51  82 CALM      30.01R
HOWELL         CLEAR     58  52  79 SE6       30.00F

CITY           SKY/WX    TMP DP  RH WIND       PRES   REMARKS
JACKSON        CLEAR     57  49  74 SE3       30.00F
6HR MIN TEMP:  57; 6HR MAX TEMP:  66;

LAMBERTVILLE   CLEAR     57  52  82 CALM      30.03R
LANSING        CLEAR     60  49  66 CALM      30.00S
6HR MIN TEMP:  60; 6HR MAX TEMP:  66;

LAPEER         FAIR      57  55  92 CALM      30.03S
MASON          CLEAR     55  49  81 CALM      29.99F
MONROE         CLEAR     55  52  88 CALM      30.01S
MT. CLEMENS    PTCLDY    60  58  91 S3        30.01S
6HR MIN TEMP:  59; 6HR MAX TEMP:  67;

PONTIAC        PTCLDY    61  52  72 CALM      30.02R
6HR MIN TEMP:  61; 6HR MAX TEMP:  66;

PORT HOPE        N/A     58  55  90 SE3       30.03R
6HR MIN TEMP:  58; 6HR MAX TEMP:  63;

PORT HURON     CLOUDY    61  59  94 CALM      30.03S FOG
TRI CITIES     CLEAR     59  53  80 SE6       30.01S
6HR MIN TEMP:  59; 6HR MAX TEMP:  69;

TROY           CLEAR     63  55  76 E5        30.04S
SAGINAW HB     CLEAR     61  52  72 SE5       30.00F
$$
MIZ043>046-050>051-056>058-064>065-071>073-077>080-020100-
SOUTHWEST LOWER MICHIGAN

CITY           SKY/WX    TMP DP  RH WIND       PRES   REMARKS
BATTLE CREEK   CLEAR     61  48  62 SE3       29.99S
6HR MIN TEMP:  61; 6HR MAX TEMP:  66;

BENTON HARBOR  PTCLDY    60  51  72 SE8       29.95R
6HR MIN TEMP:  60; 6HR MAX TEMP:  68;

BIG RAPIDS     CLEAR     52  52  99 SE3       29.98S
6HR MIN TEMP:  52; 6HR MAX TEMP:  60;

COLDWATER      CLEAR     58  50  73 CALM      30.00R
6HR MIN TEMP:  58; 6HR MAX TEMP:  67;

FREMONT        FAIR      56  50  81 CALM      29.97S
HOLLAND        PTCLDY    59  52  77 E7        29.97S
6HR MIN TEMP:  59; 6HR MAX TEMP:  66;

GRAND RAPIDS   MOCLDY    58  52  80 CALM      29.98S
6HR MIN TEMP:  58; 6HR MAX TEMP:  65;

IONIA          FAIR      58  50  73 SE5       29.99R
LUDINGTON      CLEAR     52  51  95 CALM      29.97S FOG
6HR MIN TEMP:  52; 6HR MAX TEMP:  61;

MARSHALL       CLEAR     56  48  74 SE3       29.99R
MOUNT PLEASANT CLEAR     53  51  90 CALM      30.00R
6HR MIN TEMP:  53; 6HR MAX TEMP:  65;

MUSKEGON       MOCLDY    58  50  75 E5        29.97R
6HR MIN TEMP:  58; 6HR MAX TEMP:  63;

SOUTH HAVEN    PTCLDY    61  53  74 SE6       29.95R
$$
MIZ016>042-020100-
NORTHERN LOWER MICHIGAN

CITY           SKY/WX    TMP DP  RH WIND       PRES   REMARKS
ALPENA         CLOUDY    57  57 100 SE8       30.02F FOG
6HR MIN TEMP:  57; 6HR MAX TEMP:  59;

BEAVER ISLAND  CLEAR     58  56  91 SE3       29.97R
6HR MIN TEMP:  58; 6HR MAX TEMP:  63;

BELLAIRE       PTCLDY    58  52  81 CALM      29.97S
CADILLAC       CLEAR     54  50  87 S3        29.99R
CHARLEVOIX     PTCLDY    60  55  82 SE5       29.98F
6HR MIN TEMP:  60; 6HR MAX TEMP:  66;

FRANKFORT      MOCLDY    55  50  85 CALM      29.97S
GAYLORD        CLEAR     57  52  83 SE8       29.99S
6HR MIN TEMP:  55; 6HR MAX TEMP:  62;

GRAYLING       PTCLDY    56  53  88 SE5       30.00S
6HR MIN TEMP:  56; 6HR MAX TEMP:  67;

HARBOR SPRINGS MOCLDY    59  56  88 E6        29.98S
HOUGHTON LAKE  CLEAR     54  50  86 SE5       30.00S
6HR MIN TEMP:  54; 6HR MAX TEMP:  65;

OSCODA         MOCLDY    59  57  94 SE9       30.01F FOG
PELLSTON       CLEAR     54  54 100 CALM      29.99R
6HR MIN TEMP:  54; 6HR MAX TEMP:  62;

ROGERS CITY    CLOUDY    58  58 100 SE8       30.02S FOG
TRAVERSE CITY  PTCLDY    59  51  75 SW3       29.97R
6HR MIN TEMP:  59; 6HR MAX TEMP:  69;

$$
MIZ007>008-015-020100-
EASTERN UPPER MICHIGAN

CITY           SKY/WX    TMP DP  RH WIND       PRES   REMARKS
MACKINAC ISLAN CLOUDY    56  56 100 E8        30.00R FOG
6HR MIN TEMP:  55; 6HR MAX TEMP:  56;

NEWBERRY       CLOUDY    54  53  97 SE9G17    29.96S
S. S. MARIE    CLOUDY    55  54  96 E9        30.00S FOG
6HR MIN TEMP:  53; 6HR MAX TEMP:  55;

MUNISING         N/A     56  50  80 S8        29.92S
6HR MIN TEMP:  56; 6HR MAX TEMP:  64;

$$
MIZ004>006-011>014-085-020100-
CENTRAL UPPER MICHIGAN

CITY           SKY/WX    TMP DP  RH WIND       PRES   REMARKS
MANISTIQUE     CLOUDY    54  52  94 SW3       29.96R
SAWYER-GWINN   MOCLDY    54  48  82 S17       29.91S
$$
MIZ001>003-009>011-084-020100-
WESTERN UPPER MICHIGAN

CITY           SKY/WX    TMP DP  RH WIND       PRES   REMARKS
IRON MOUNTAIN  CLOUDY    54  49  83 SE8       29.90S
6HR MIN TEMP:  54; 6HR MAX TEMP:  56;

HOUGHTON       CLOUDY    55  50  83 S12       29.83R
6HR MIN TEMP:  55; 6HR MAX TEMP:  61; 6HR PCP: TRACE;

COPPER HARBOR    N/A     55  50  83 SW12G23   29.82F
6HR MIN TEMP:  55; 6HR MAX TEMP:  60; 6HR PCP:  0.02;

$$

ABBREVIATIONS USED IN REMARKS
   TC - TEMPERATURE IN CELSIUS
  WCI - WIND CHILL INDEX
   HX - HEAT INDEX
  VSB - VISIBILITY




USA.gov is the U.S. government's official web portal to all federal, state and local government web resources and services.